Location: P�rn�nmaa
(61.1833°N, 23.0000°E)
Time: 19:44:18
(UTC+00:00)

SJ-7 - Pass Details

Date: 08 December 2019
Orbit: 555 x 603 km, 97.7° (Epoch: 17 January)

Event Time Altitude Azimuth Distance (km) Brightness Sun altitude
Rises 14:58:40 0° 161° (SSE) 2,834 8.1 -10.6°
Reaches altitude 10° 15:00:50 10° 162° (SSE) 1,930 7.2 -10.9°
Maximum altitude 15:05:02 88° 249° (WSW) 598 4.5 -11.3°
Drops below altitude 10° 15:09:13 10° 343° (NNW) 1,915 7.0 -11.8°
Sets 15:11:22 0° 344° (NNW) 2,811 7.8 -12.0°
